| time (UTC) | temp C | wind direction | speed KPH | gust KPH | rain 1hr cm | rain 24hr cm | rain mn cm | humidity % | barometer mb |
| 20260508051004 | 16 | 328 | 1.6 | 9.7 | 0.00 | 0.00 | 0.00 | 65 | 1016.7 |
| 20260508050504 | 16 | 334 | 3.2 | 9.7 | 0.00 | 0.00 | 0.00 | 65 | 1016.6 |
| 20260508050005 | 16 | 336 | 4.8 | 8.0 | 0.00 | 0.00 | 0.00 | 65 | 1016.6 |
| 20260508045504 | 16 | 326 | 3.2 | 8.0 | 0.00 | 0.00 | 0.00 | 65 | 1016.6 |
| 20260508045004 | 16 | 324 | 3.2 | 8.0 | 0.00 | 0.00 | 0.00 | 65 | 1016.6 |
| 20260508044505 | 16 | 327 | 3.2 | 4.8 | 0.00 | 0.00 | 0.00 | 65 | 1016.6 |
| 20260508043504 | 16 | 339 | 3.2 | 8.0 | 0.00 | 0.00 | 0.00 | 64 | 1016.5 |
| 20260508043004 | 16 | 332 | 3.2 | 9.7 | 0.00 | 0.00 | 0.00 | 64 | 1016.7 |
| 20260508042504 | 16 | 330 | 4.8 | 8.0 | 0.00 | 0.00 | 0.00 | 64 | 1016.6 |
| 20260508042004 | 16 | 342 | 4.8 | 8.0 | 0.00 | 0.00 | 0.00 | 64 | 1016.5 |
| 20260508041504 | 16 | 333 | 8.0 | 11.3 | 0.00 | 0.00 | 0.00 | 63 | 1016.5 |
| 20260508041004 | 16 | 349 | 4.8 | 11.3 | 0.00 | 0.00 | 0.00 | 64 | 1016.4 |
| 20260508040504 | 16 | 351 | 4.8 | 8.0 | 0.00 | 0.00 | 0.00 | 64 | 1016.3 |
| 20260508034505 | 16 | 323 | 1.6 | 3.2 | 0.00 | 0.00 | 0.00 | 66 | 1016.1 |
| 20260508034004 | 16 | 296 | 0.0 | 3.2 | 0.00 | 0.00 | 0.00 | 65 | 1016.1 |
| 20260508033504 | 17 | 296 | 1.6 | 3.2 | 0.00 | 0.00 | 0.00 | 64 | 1016.0 |
| 20260508033005 | 17 | 321 | 1.6 | 3.2 | 0.00 | 0.00 | 0.00 | 64 | 1015.9 |
| 20260508032504 | 17 | 340 | 1.6 | 3.2 | 0.00 | 0.00 | 0.00 | 63 | 1015.9 |
| 20260508032004 | 17 | 315 | 1.6 | 3.2 | 0.00 | 0.00 | 0.00 | 64 | 1015.8 |
| 20260508031005 | 18 | 294 | 1.6 | 3.2 | 0.00 | 0.00 | 0.00 | 64 | 1015.7 |
| 20260508030504 | 18 | 294 | 1.6 | 3.2 | 0.00 | 0.00 | 0.00 | 63 | 1015.7 |
| 20260508030004 | 18 | 293 | 1.6 | 3.2 | 0.00 | 0.00 | 0.00 | 62 | 1015.6 |
| 20260508025505 | 18 | 333 | 0.0 | 3.2 | 0.00 | 0.00 | 0.00 | 63 | 1015.6 |
| 20260508024505 | 19 | 333 | 0.0 | 3.2 | 0.00 | 0.00 | 0.00 | 64 | 1015.5 |
| 20260508024004 | 20 | 256 | 1.6 | 1.6 | 0.00 | 0.00 | 0.00 | 61 | 1015.5 |
| 20260508023504 | 20 | 246 | 0.0 | 1.6 | 0.00 | 0.00 | 0.00 | 64 | 1015.5 |
| 20260508022504 | 21 | 246 | 1.6 | 3.2 | 0.00 | 0.00 | 0.00 | 55 | 1015.6 |
| 20260508022005 | 21 | 220 | 0.0 | 3.2 | 0.00 | 0.00 | 0.00 | 57 | 1015.6 |
| 20260508021504 | 21 | 220 | 0.0 | 3.2 | 0.00 | 0.00 | 0.00 | 55 | 1015.6 |
| 20260508021004 | 21 | 232 | 3.2 | 4.8 | 0.00 | 0.00 | 0.00 | 53 | 1015.6 |
| 20260508020504 | 21 | 244 | 1.6 | 3.2 | 0.00 | 0.00 | 0.00 | 51 | 1015.6 |
| 20260508020004 | 21 | 64 | 0.0 | 3.2 | 0.00 | 0.00 | 0.00 | 52 | 1015.6 |
| 20260508015504 | 22 | 67 | 1.6 | 1.6 | 0.00 | 0.00 | 0.00 | 52 | 1015.7 |
| 20260508015005 | 22 | 53 | 1.6 | 3.2 | 0.00 | 0.00 | 0.00 | 51 | 1015.7 |
| 20260508014504 | 22 | 275 | 1.6 | 3.2 | 0.00 | 0.00 | 0.00 | 49 | 1015.6 |
| 20260508013504 | 22 | 83 | 3.2 | 4.8 | 0.00 | 0.00 | 0.00 | 47 | 1015.8 |
| 20260508013005 | 23 | 122 | 3.2 | 4.8 | 0.00 | 0.00 | 0.00 | 48 | 1015.8 |
| 20260508012504 | 23 | 181 | 1.6 | 3.2 | 0.00 | 0.00 | 0.00 | 49 | 1015.9 |
| 20260508011504 | 22 | 223 | 3.2 | 3.2 | 0.00 | 0.00 | 0.00 | 48 | 1016.1 |
| 20260508011004 | 22 | 207 | 1.6 | 3.2 | 0.00 | 0.00 | 0.00 | 48 | 1016.1 |
| 20260508010503 | 22 | 254 | 1.6 | 1.6 | 0.00 | 0.00 | 0.00 | 49 | 1016.2 |
| 20260508010004 | 21 | 310 | 1.6 | 8.0 | 0.00 | 0.00 | 0.00 | 52 | 1016.2 |
| 20260508005504 | 21 | 84 | 3.2 | 4.8 | 0.00 | 0.00 | 0.00 | 52 | 1016.2 |
| 20260508005005 | 21 | 9 | 3.2 | 4.8 | 0.00 | 0.00 | 0.00 | 54 | 1016.2 |
| 20260508004505 | 21 | 359 | 1.6 | 3.2 | 0.00 | 0.00 | 0.00 | 52 | 1016.2 |
| 20260508004004 | 21 | 44 | 1.6 | 3.2 | 0.00 | 0.00 | 0.00 | 53 | 1016.2 |
| 20260508003504 | 21 | 50 | 3.2 | 4.8 | 0.00 | 0.00 | 0.00 | 53 | 1016.3 |
| 20260508003005 | 21 | 11 | 1.6 | 3.2 | 0.00 | 0.00 | 0.00 | 54 | 1016.3 |
| 20260508001004 | 21 | 46 | 1.6 | 4.8 | 0.00 | 0.00 | 0.00 | 52 | 1016.5 |
| 20260508000504 | 21 | 68 | 6.4 | 12.9 | 0.00 | 0.00 | 0.00 | 53 | 1016.5 |
| 20260508000004 | 21 | 39 | 3.2 | 4.8 | 0.00 | 0.00 | 0.00 | 53 | 1016.5 |
| 20260507235504 | 21 | 15 | 1.6 | 3.2 | 0.00 | 0.00 | 0.00 | 53 | 1016.5 |
| 20260507235004 | 21 | 24 | 3.2 | 4.8 | 0.00 | 0.00 | 0.00 | 52 | 1016.5 |
| 20260507234504 | 21 | 26 | 3.2 | 4.8 | 0.00 | 0.00 | 0.00 | 53 | 1016.5 |
| 20260507234004 | 20 | 64 | 3.2 | 4.8 | 0.00 | 0.00 | 0.00 | 53 | 1016.6 |
| 20260507233505 | 20 | 355 | 3.2 | 9.7 | 0.00 | 0.00 | 0.00 | 54 | 1016.7 |
| 20260507233007 | 20 | 47 | 4.8 | 8.0 | 0.00 | 0.00 | 0.00 | 55 | 1016.7 |
| 20260507232504 | 20 | 22 | 1.6 | 3.2 | 0.00 | 0.00 | 0.00 | 56 | 1016.8 |
| 20260507232006 | 20 | 18 | 1.6 | 3.2 | 0.00 | 0.00 | 0.00 | 54 | 1016.9 |
| 20260507231507 | 20 | 0 | 3.2 | 4.8 | 0.00 | 0.00 | 0.00 | 54 | 1016.9 |
| 20260507231005 | 20 | 5 | 3.2 | 9.7 | 0.00 | 0.00 | 0.00 | 55 | 1017.0 |
| 20260507225505 | 20 | 66 | 3.2 | 8.0 | 0.00 | 0.00 | 0.00 | 55 | 1017.3 |
| 20260507225005 | 20 | 62 | 3.2 | 11.3 | 0.00 | 0.00 | 0.00 | 52 | 1017.4 |
| 20260507224507 | 20 | 8 | 3.2 | 4.8 | 0.00 | 0.00 | 0.00 | 52 | 1017.5 |
| 20260507224005 | 20 | 338 | 3.2 | 4.8 | 0.00 | 0.00 | 0.00 | 55 | 1017.6 |
| 20260507223006 | 20 | 79 | 3.2 | 4.8 | 0.00 | 0.00 | 0.00 | 52 | 1017.7 |
| 20260507222505 | 20 | 68 | 1.6 | 8.0 | 0.00 | 0.00 | 0.00 | 53 | 1017.8 |
| 20260507222005 | 20 | 183 | 6.4 | 12.9 | 0.00 | 0.00 | 0.00 | 55 | 1017.8 |
| 20260507221505 | 19 | 91 | 4.8 | 12.9 | 0.00 | 0.00 | 0.00 | 53 | 1017.8 |
| 20260507221005 | 19 | 108 | 3.2 | 8.0 | 0.00 | 0.00 | 0.00 | 52 | 1018.0 |
| 20260507220505 | 19 | 31 | 1.6 | 8.0 | 0.00 | 0.00 | 0.00 | 55 | 1018.0 |
| 20260507220006 | 19 | 83 | 3.2 | 8.0 | 0.00 | 0.00 | 0.00 | 56 | 1018.1 |
| 20260507215505 | 18 | 36 | 1.6 | 4.8 | 0.00 | 0.00 | 0.00 | 55 | 1018.2 |
| 20260507215005 | 18 | 7 | 3.2 | 3.2 | 0.00 | 0.00 | 0.00 | 56 | 1018.2 |
| 20260507214505 | 18 | 349 | 4.8 | 12.9 | 0.00 | 0.00 | 0.00 | 55 | 1018.3 |
| 20260507214005 | 18 | 58 | 1.6 | 9.7 | 0.00 | 0.00 | 0.00 | 55 | 1018.3 |
| 20260507213505 | 18 | 73 | 3.2 | 9.7 | 0.00 | 0.00 | 0.00 | 56 | 1018.3 |
| 20260507213005 | 18 | 24 | 1.6 | 3.2 | 0.00 | 0.00 | 0.00 | 56 | 1018.4 |
| 20260507212505 | 18 | 314 | 1.6 | 4.8 | 0.00 | 0.00 | 0.00 | 56 | 1018.4 |
| 20260507212005 | 18 | 13 | 4.8 | 9.7 | 0.00 | 0.00 | 0.00 | 56 | 1018.5 |
| 20260507211505 | 17 | 13 | 1.6 | 9.7 | 0.00 | 0.00 | 0.00 | 57 | 1018.5 |
| 20260507211005 | 17 | 348 | 4.8 | 8.0 | 0.00 | 0.00 | 0.00 | 57 | 1018.6 |
| 20260507210505 | 17 | 60 | 4.8 | 9.7 | 0.00 | 0.00 | 0.00 | 57 | 1018.6 |
| 20260507205506 | 17 | 31 | 4.8 | 8.0 | 0.00 | 0.00 | 0.00 | 58 | 1018.8 |
| 20260507205006 | 17 | 334 | 3.2 | 8.0 | 0.00 | 0.00 | 0.00 | 62 | 1018.8 |
| 20260507204506 | 17 | 8 | 1.6 | 8.0 | 0.00 | 0.00 | 0.00 | 57 | 1018.8 |
| 20260507204005 | 17 | 2 | 3.2 | 12.9 | 0.00 | 0.00 | 0.00 | 58 | 1018.9 |
| 20260507203506 | 17 | 36 | 4.8 | 9.7 | 0.00 | 0.00 | 0.00 | 60 | 1019.0 |
| 20260507203006 | 17 | 21 | 4.8 | 9.7 | 0.00 | 0.00 | 0.00 | 59 | 1019.0 |
| 20260507202505 | 17 | 9 | 3.2 | 8.0 | 0.00 | 0.00 | 0.00 | 58 | 1019.1 |
| 20260507202005 | 17 | 6 | 4.8 | 9.7 | 0.00 | 0.00 | 0.00 | 60 | 1019.2 |
| 20260507201505 | 16 | 2 | 3.2 | 4.8 | 0.00 | 0.00 | 0.00 | 60 | 1019.3 |
| 20260507201005 | 17 | 50 | 4.8 | 8.0 | 0.00 | 0.00 | 0.00 | 60 | 1019.3 |
| 20260507200505 | 16 | 47 | 3.2 | 11.3 | 0.00 | 0.00 | 0.00 | 60 | 1019.4 |
| 20260507200005 | 16 | 72 | 3.2 | 12.9 | 0.00 | 0.00 | 0.00 | 60 | 1019.5 |
| 20260507195506 | 16 | 4 | 3.2 | 12.9 | 0.00 | 0.00 | 0.00 | 59 | 1019.5 |
| 20260507195005 | 16 | 77 | 8.0 | 14.5 | 0.00 | 0.00 | 0.00 | 58 | 1019.6 |
| 20260507194505 | 16 | 49 | 1.6 | 4.8 | 0.00 | 0.00 | 0.00 | 61 | 1019.7 |
| 20260507194005 | 16 | 9 | 3.2 | 12.9 | 0.00 | 0.00 | 0.00 | 60 | 1019.6 |
| 20260507193006 | 16 | 67 | 3.2 | 11.3 | 0.00 | 0.00 | 0.00 | 64 | 1019.8 |
| 20260507192506 | 15 | 29 | 3.2 | 12.9 | 0.00 | 0.00 | 0.00 | 62 | 1019.7 |
| 20260507192005 | 15 | 349 | 3.2 | 8.0 | 0.00 | 0.00 | 0.00 | 61 | 1019.9 |
| 20260507191505 | 16 | 52 | 6.4 | 14.5 | 0.00 | 0.00 | 0.00 | 61 | 1020.0 |
| 20260507191005 | 16 | 124 | 4.8 | 11.3 | 0.00 | 0.00 | 0.00 | 60 | 1019.9 |
| 20260507190505 | 15 | 119 | 8.0 | 14.5 | 0.00 | 0.00 | 0.00 | 61 | 1020.0 |
| 20260507190006 | 16 | 344 | 3.2 | 12.9 | 0.00 | 0.00 | 0.00 | 63 | 1020.0 |
| 20260507185505 | 16 | 84 | 4.8 | 12.9 | 0.00 | 0.00 | 0.00 | 64 | 1020.0 |
| 20260507185005 | 16 | 5 | 1.6 | 12.9 | 0.00 | 0.00 | 0.00 | 61 | 1020.1 |
| 20260507184505 | 16 | 90 | 4.8 | 11.3 | 0.00 | 0.00 | 0.00 | 61 | 1020.1 |
| 20260507184005 | 15 | 147 | 6.4 | 14.5 | 0.00 | 0.00 | 0.00 | 62 | 1020.1 |
| 20260507183505 | 15 | 65 | 3.2 | 9.7 | 0.00 | 0.00 | 0.00 | 61 | 1020.2 |
| 20260507183006 | 15 | 41 | 3.2 | 14.5 | 0.00 | 0.00 | 0.00 | 59 | 1020.3 |
| 20260507182504 | 15 | 145 | 6.4 | 14.5 | 0.00 | 0.00 | 0.00 | 60 | 1020.3 |
| 20260507181505 | 14 | 307 | 3.2 | 4.8 | 0.00 | 0.00 | 0.00 | 66 | 1020.4 |
| 20260507181005 | 14 | 341 | 3.2 | 4.8 | 0.00 | 0.00 | 0.00 | 66 | 1020.4 |
| 20260507180504 | 13 | 338 | 1.6 | 4.8 | 0.00 | 0.00 | 0.00 | 68 | 1020.5 |
| 20260507180005 | 13 | 335 | 3.2 | 3.2 | 0.00 | 0.00 | 0.00 | 67 | 1020.5 |
| 20260507175505 | 14 | 15 | 3.2 | 4.8 | 0.00 | 0.00 | 0.00 | 67 | 1020.5 |
| 20260507175005 | 14 | 30 | 1.6 | 3.2 | 0.00 | 0.00 | 0.00 | 65 | 1020.6 |
| 20260507174505 | 14 | 351 | 3.2 | 9.7 | 0.00 | 0.00 | 0.00 | 66 | 1020.6 |
| 20260507174005 | 14 | 44 | 3.2 | 12.9 | 0.00 | 0.00 | 0.00 | 66 | 1020.6 |
| 20260507173505 | 13 | 23 | 4.8 | 11.3 | 0.00 | 0.00 | 0.00 | 67 | 1020.7 |
| 20260507173006 | 13 | 318 | 1.6 | 4.8 | 0.00 | 0.00 | 0.00 | 67 | 1020.7 |
| 20260507172505 | 13 | 346 | 3.2 | 4.8 | 0.00 | 0.00 | 0.00 | 69 | 1020.7 |
| 20260507172005 | 13 | 312 | 3.2 | 4.8 | 0.00 | 0.00 | 0.00 | 68 | 1020.7 |
| 20260507171505 | 13 | 332 | 4.8 | 8.0 | 0.00 | 0.00 | 0.00 | 68 | 1020.8 |
| 20260507171005 | 13 | 353 | 3.2 | 4.8 | 0.00 | 0.00 | 0.00 | 68 | 1020.8 |
| 20260507170505 | 13 | 43 | 1.6 | 4.8 | 0.00 | 0.00 | 0.00 | 68 | 1020.8 |
| 20260507165505 | 13 | 341 | 3.2 | 8.0 | 0.00 | 0.00 | 0.00 | 69 | 1020.7 |
| 20260507165005 | 12 | 173 | 3.2 | 4.8 | 0.00 | 0.00 | 0.00 | 68 | 1020.8 |
| 20260507164505 | 12 | 310 | 3.2 | 8.0 | 0.00 | 0.00 | 0.00 | 69 | 1020.9 |
| 20260507164005 | 12 | 290 | 1.6 | 8.0 | 0.00 | 0.00 | 0.00 | 70 | 1020.9 |
| 20260507163005 | 12 | 0 | 3.2 | 4.8 | 0.00 | 0.00 | 0.00 | 70 | 1020.9 |
| 20260507162505 | 12 | 17 | 3.2 | 8.0 | 0.00 | 0.00 | 0.00 | 71 | 1020.9 |
| 20260507162005 | 11 | 0 | 4.8 | 8.0 | 0.00 | 0.00 | 0.00 | 71 | 1020.9 |
| 20260507161505 | 11 | 327 | 4.8 | 8.0 | 0.00 | 0.00 | 0.00 | 72 | 1020.9 |
| 20260507161005 | 11 | 334 | 3.2 | 8.0 | 0.00 | 0.00 | 0.00 | 72 | 1020.9 |
| 20260507160504 | 11 | 329 | 4.8 | 8.0 | 0.00 | 0.00 | 0.00 | 75 | 1021.0 |
| 20260507160005 | 11 | 8 | 4.8 | 8.0 | 0.00 | 0.00 | 0.00 | 74 | 1021.0 |
| 20260507155505 | 11 | 3 | 3.2 | 8.0 | 0.00 | 0.00 | 0.00 | 74 | 1021.1 |
| 20260507155005 | 11 | 358 | 6.4 | 11.3 | 0.00 | 0.00 | 0.00 | 74 | 1021.0 |
| 20260507154505 | 11 | 330 | 4.8 | 4.8 | 0.00 | 0.00 | 0.00 | 75 | 1021.0 |
| 20260507154006 | 10 | 345 | 3.2 | 9.7 | 0.00 | 0.00 | 0.00 | 75 | 1021.0 |
| 20260507153505 | 10 | 335 | 6.4 | 9.7 | 0.00 | 0.00 | 0.00 | 75 | 1021.1 |
| 20260507152505 | 10 | 329 | 3.2 | 8.0 | 0.00 | 0.00 | 0.00 | 76 | 1021.0 |
| 20260507152005 | 10 | 342 | 1.6 | 4.8 | 0.00 | 0.00 | 0.00 | 76 | 1021.0 |
| 20260507151505 | 10 | 321 | 1.6 | 8.0 | 0.00 | 0.00 | 0.00 | 76 | 1021.0 |
| 20260507151005 | 10 | 5 | 3.2 | 8.0 | 0.00 | 0.00 | 0.00 | 76 | 1020.9 |
| 20260507150505 | 10 | 343 | 1.6 | 4.8 | 0.00 | 0.00 | 0.00 | 76 | 1021.0 |
| 20260507150006 | 10 | 328 | 3.2 | 4.8 | 0.00 | 0.00 | 0.00 | 76 | 1021.0 |
| 20260507145506 | 10 | 357 | 3.2 | 8.0 | 0.00 | 0.00 | 0.00 | 76 | 1021.0 |
| 20260507144005 | 10 | 337 | 3.2 | 8.0 | 0.00 | 0.00 | 0.00 | 76 | 1020.9 |
| 20260507143505 | 10 | 358 | 3.2 | 8.0 | 0.00 | 0.00 | 0.00 | 76 | 1020.9 |
| 20260507142505 | 10 | 345 | 3.2 | 3.2 | 0.00 | 0.00 | 0.00 | 76 | 1020.9 |
| 20260507142005 | 10 | 315 | 1.6 | 9.7 | 0.00 | 0.00 | 0.00 | 76 | 1020.9 |
| 20260507141505 | 10 | 330 | 4.8 | 8.0 | 0.00 | 0.00 | 0.00 | 77 | 1020.9 |
| 20260507141007 | 10 | 331 | 3.2 | 8.0 | 0.00 | 0.00 | 0.00 | 77 | 1020.8 |
| 20260507140505 | 10 | 350 | 3.2 | 4.8 | 0.00 | 0.00 | 0.00 | 77 | 1020.7 |
| 20260507140006 | 10 | 336 | 3.2 | 4.8 | 0.00 | 0.00 | 0.00 | 78 | 1020.8 |
| 20260507135505 | 10 | 354 | 1.6 | 3.2 | 0.00 | 0.00 | 0.00 | 78 | 1020.7 |
| 20260507135006 | 10 | 335 | 1.6 | 8.0 | 0.00 | 0.00 | 0.00 | 77 | 1020.7 |
| 20260507134505 | 10 | 335 | 4.8 | 8.0 | 0.00 | 0.00 | 0.00 | 77 | 1020.6 |
| 20260507134005 | 10 | 329 | 3.2 | 9.7 | 0.00 | 0.00 | 0.00 | 77 | 1020.6 |
| 20260507133505 | 10 | 342 | 4.8 | 8.0 | 0.00 | 0.00 | 0.00 | 77 | 1020.6 |
| 20260507133005 | 10 | 332 | 4.8 | 8.0 | 0.00 | 0.00 | 0.00 | 77 | 1020.5 |
| 20260507132505 | 10 | 345 | 4.8 | 9.7 | 0.00 | 0.00 | 0.00 | 77 | 1020.6 |
| 20260507132005 | 10 | 327 | 4.8 | 8.0 | 0.00 | 0.00 | 0.00 | 77 | 1020.6 |
| 20260507131505 | 10 | 350 | 3.2 | 9.7 | 0.00 | 0.00 | 0.00 | 77 | 1020.5 |
| 20260507130505 | 10 | 339 | 3.2 | 8.0 | 0.00 | 0.00 | 0.00 | 77 | 1020.5 |
| 20260507125504 | 10 | 341 | 4.8 | 8.0 | 0.00 | 0.00 | 0.00 | 77 | 1020.4 |
| 20260507125005 | 10 | 335 | 3.2 | 4.8 | 0.00 | 0.00 | 0.00 | 77 | 1020.4 |
| 20260507124005 | 10 | 332 | 3.2 | 4.8 | 0.00 | 0.00 | 0.00 | 77 | 1020.4 |
| 20260507123505 | 10 | 329 | 1.6 | 3.2 | 0.00 | 0.00 | 0.00 | 77 | 1020.4 |
| 20260507123006 | 10 | 331 | 1.6 | 3.2 | 0.00 | 0.00 | 0.00 | 77 | 1020.5 |
| 20260507122505 | 10 | 328 | 1.6 | 3.2 | 0.00 | 0.00 | 0.00 | 76 | 1020.4 |
| 20260507122005 | 10 | 319 | 1.6 | 4.8 | 0.00 | 0.00 | 0.00 | 76 | 1020.5 |
| 20260507121005 | 10 | 333 | 1.6 | 4.8 | 0.00 | 0.00 | 0.00 | 76 | 1020.6 |
| 20260507120505 | 10 | 337 | 3.2 | 4.8 | 0.00 | 0.00 | 0.00 | 76 | 1020.7 |
| 20260507120005 | 11 | 330 | 1.6 | 4.8 | 0.00 | 0.00 | 0.00 | 76 | 1020.7 |
| 20260507115005 | 11 | 322 | 1.6 | 4.8 | 0.00 | 0.00 | 0.00 | 76 | 1020.7 |
| 20260507114505 | 11 | 338 | 1.6 | 4.8 | 0.00 | 0.00 | 0.00 | 76 | 1020.8 |
| 20260507113505 | 11 | 328 | 1.6 | 4.8 | 0.00 | 0.00 | 0.00 | 76 | 1020.8 |
| 20260507112505 | 11 | 316 | 3.2 | 4.8 | 0.00 | 0.00 | 0.00 | 76 | 1020.9 |
| 20260507111507 | 11 | 332 | 1.6 | 4.8 | 0.00 | 0.00 | 0.00 | 76 | 1020.9 |
| 20260507111005 | 11 | 329 | 1.6 | 8.0 | 0.00 | 0.00 | 0.00 | 76 | 1020.9 |
| 20260507110505 | 11 | 327 | 3.2 | 4.8 | 0.00 | 0.00 | 0.00 | 75 | 1020.9 |
| 20260507110005 | 11 | 336 | 3.2 | 8.0 | 0.00 | 0.00 | 0.00 | 76 | 1020.9 |
| 20260507105005 | 11 | 331 | 3.2 | 8.0 | 0.00 | 0.00 | 0.00 | 76 | 1020.9 |
| 20260507104506 | 11 | 329 | 3.2 | 8.0 | 0.00 | 0.00 | 0.00 | 76 | 1021.0 |
| 20260507103005 | 11 | 331 | 3.2 | 8.0 | 0.00 | 0.00 | 0.00 | 76 | 1021.1 |
| 20260507102505 | 11 | 330 | 3.2 | 8.0 | 0.00 | 0.00 | 0.00 | 76 | 1021.2 |
| 20260507102007 | 11 | 338 | 4.8 | 4.8 | 0.00 | 0.00 | 0.00 | 75 | 1021.3 |
| 20260507101507 | 11 | 6 | 4.8 | 12.9 | 0.00 | 0.00 | 0.00 | 76 | 1021.2 |
| 20260507101004 | 11 | 352 | 4.8 | 8.0 | 0.00 | 0.00 | 0.00 | 76 | 1021.2 |
| 20260507100504 | 11 | 336 | 3.2 | 4.8 | 0.00 | 0.00 | 0.00 | 76 | 1021.3 |
| 20260507100005 | 11 | 336 | 3.2 | 11.3 | 0.00 | 0.00 | 0.00 | 76 | 1021.2 |
| 20260507095505 | 11 | 348 | 3.2 | 8.0 | 0.00 | 0.00 | 0.00 | 76 | 1021.3 |
| 20260507095005 | 11 | 351 | 3.2 | 4.8 | 0.00 | 0.00 | 0.00 | 76 | 1021.3 |
| 20260507094505 | 11 | 338 | 3.2 | 8.0 | 0.00 | 0.00 | 0.00 | 75 | 1021.3 |
| 20260507094005 | 11 | 327 | 4.8 | 8.0 | 0.00 | 0.00 | 0.00 | 76 | 1021.3 |
| 20260507093505 | 11 | 358 | 3.2 | 8.0 | 0.00 | 0.00 | 0.00 | 76 | 1021.3 |
| 20260507093006 | 11 | 339 | 3.2 | 9.7 | 0.00 | 0.00 | 0.00 | 76 | 1021.3 |
| 20260507092505 | 11 | 337 | 1.6 | 4.8 | 0.00 | 0.00 | 0.00 | 76 | 1021.4 |
| 20260507092005 | 11 | 356 | 3.2 | 4.8 | 0.00 | 0.00 | 0.00 | 76 | 1021.4 |
| 20260507091005 | 11 | 340 | 1.6 | 3.2 | 0.00 | 0.00 | 0.00 | 76 | 1021.5 |
| 20260507090505 | 11 | 302 | 1.6 | 3.2 | 0.00 | 0.00 | 0.00 | 75 | 1021.6 |
| 20260507090006 | 11 | 345 | 1.6 | 3.2 | 0.00 | 0.00 | 0.00 | 76 | 1021.6 |
| 20260507085005 | 11 | 319 | 3.2 | 8.0 | 0.00 | 0.00 | 0.00 | 75 | 1021.6 |
| 20260507084005 | 11 | 326 | 3.2 | 3.2 | 0.00 | 0.00 | 0.00 | 75 | 1021.6 |
| 20260507083505 | 11 | 328 | 1.6 | 8.0 | 0.00 | 0.00 | 0.00 | 75 | 1021.5 |
| 20260507083006 | 11 | 330 | 4.8 | 8.0 | 0.00 | 0.00 | 0.00 | 75 | 1021.5 |
| 20260507082505 | 11 | 334 | 3.2 | 4.8 | 0.00 | 0.00 | 0.00 | 76 | 1021.6 |
| 20260507081504 | 11 | 331 | 4.8 | 8.0 | 0.00 | 0.00 | 0.00 | 76 | 1021.6 |
| 20260507081005 | 11 | 329 | 3.2 | 8.0 | 0.00 | 0.00 | 0.00 | 76 | 1021.6 |
| 20260507080504 | 11 | 347 | 3.2 | 4.8 | 0.00 | 0.00 | 0.00 | 76 | 1021.5 |
| 20260507080005 | 11 | 330 | 3.2 | 4.8 | 0.00 | 0.00 | 0.00 | 76 | 1021.5 |
| 20260507075505 | 12 | 357 | 3.2 | 4.8 | 0.00 | 0.00 | 0.00 | 76 | 1021.6 |
| 20260507075004 | 12 | 329 | 3.2 | 3.2 | 0.00 | 0.00 | 0.00 | 77 | 1021.5 |
| 20260507074504 | 12 | 343 | 3.2 | 8.0 | 0.00 | 0.00 | 0.00 | 77 | 1021.5 |
| 20260507074005 | 12 | 330 | 4.8 | 8.0 | 0.00 | 0.00 | 0.00 | 77 | 1021.5 |
| 20260507073505 | 12 | 334 | 4.8 | 9.7 | 0.00 | 0.00 | 0.00 | 77 | 1021.5 |
| 20260507073005 | 12 | 332 | 3.2 | 9.7 | 0.00 | 0.00 | 0.00 | 78 | 1021.5 |
| 20260507072504 | 12 | 332 | 3.2 | 4.8 | 0.00 | 0.00 | 0.00 | 78 | 1021.5 |
| 20260507072006 | 12 | 342 | 1.6 | 3.2 | 0.00 | 0.00 | 0.00 | 78 | 1021.5 |
| 20260507071505 | 12 | 310 | 3.2 | 4.8 | 0.00 | 0.00 | 0.00 | 79 | 1021.4 |
| 20260507071005 | 11 | 301 | 1.6 | 8.0 | 0.00 | 0.00 | 0.00 | 78 | 1021.4 |
| 20260507070010 | 12 | 333 | 6.4 | 8.0 | 0.00 | 0.00 | 0.00 | 79 | 1021.4 |
| 20260507065005 | 12 | 337 | 4.8 | 8.0 | 0.00 | 0.00 | 0.00 | 80 | 1021.3 |
| 20260507064505 | 12 | 344 | 3.2 | 8.0 | 0.00 | 0.00 | 0.00 | 80 | 1021.3 |
| 20260507064005 | 12 | 328 | 4.8 | 8.0 | 0.00 | 0.00 | 0.00 | 80 | 1021.3 |
| 20260507063505 | 12 | 349 | 4.8 | 8.0 | 0.00 | 0.00 | 0.00 | 80 | 1021.3 |
| 20260507063005 | 12 | 334 | 4.8 | 9.7 | 0.00 | 0.00 | 0.00 | 80 | 1021.4 |
| 20260507062005 | 12 | 330 | 4.8 | 9.7 | 0.00 | 0.00 | 0.00 | 80 | 1021.4 |
| 20260507061505 | 12 | 331 | 4.8 | 9.7 | 0.00 | 0.00 | 0.00 | 81 | 1021.5 |
| 20260507061005 | 12 | 331 | 4.8 | 9.7 | 0.00 | 0.00 | 0.00 | 81 | 1021.5 |
| 20260507060505 | 12 | 339 | 4.8 | 9.7 | 0.00 | 0.00 | 0.00 | 81 | 1021.4 |
| 20260507060005 | 12 | 332 | 4.8 | 11.3 | 0.00 | 0.00 | 0.00 | 81 | 1021.5 |
| 20260507055504 | 12 | 333 | 4.8 | 11.3 | 0.00 | 0.00 | 0.00 | 81 | 1021.4 |
| 20260507054505 | 12 | 332 | 6.4 | 11.3 | 0.00 | 0.00 | 0.00 | 81 | 1021.3 |
| 20260507054004 | 12 | 340 | 8.0 | 11.3 | 0.00 | 0.00 | 0.00 | 81 | 1021.3 |
| 20260507053505 | 12 | 333 | 8.0 | 12.9 | 0.00 | 0.00 | 0.00 | 81 | 1021.3 |
| 20260507053005 | 12 | 329 | 6.4 | 11.3 | 0.00 | 0.00 | 0.00 | 81 | 1021.2 |
| 20260507052505 | 12 | 335 | 4.8 | 11.3 | 0.00 | 0.00 | 0.00 | 81 | 1021.2 |
| 20260507052005 | 12 | 348 | 6.4 | 12.9 | 0.00 | 0.00 | 0.00 | 81 | 1021.2 |
| 20260507051505 | 12 | 344 | 4.8 | 9.7 | 0.00 | 0.00 | 0.00 | 81 | 1021.2 |